SITE: BDASc,YEAR: 2009,,,,,,
2009date,time,pzhd (cm),gw temp (C),DWT (cm),WT elev (m),,
01/01/09,0:00,329.6,14.1,90.3,1372.526,,Depth to water table:
01/01/09,0:30,329.9,14.1,90.0,1372.529,,DWT = SCL - CH - h (all values in cm)
01/01/09,1:00,330.3,14.1,89.6,1372.533,,where
01/01/09,1:30,329.6,14.1,90.3,1372.526,,SCL = sensor cable length = 569.6 cm
01/01/09,2:00,330.2,14.1,89.7,1372.532,,CH = casing height of well = 149.7 cm
01/01/09,2:30,329.9,14.1,90.0,1372.529,,h = height of water above sensor (from pzhd column)
01/01/09,3:00,330.0,14.1,89.9,1372.530,,
01/01/09,3:30,329.9,14.1,90.0,1372.529,,WT elevation:
01/01/09,4:00,329.6,14.1,90.3,1372.526,,Sensor elev = 1369.230 m asl
01/01/09,4:30,330.0,14.1,89.9,1372.530,,WT elev = sensor elev + h (from pzhd column)
01/01/09,5:00,329.9,14.1,90.0,1372.529,,
01/01/09,5:30,329.6,14.1,90.3,1372.526,,
01/01/09,6:00,329.9,14.1,90.0,1372.529,,
01/01/09,6:30,329.6,14.1,90.3,1372.526,,
01/01/09,7:00,329.8,14.1,90.1,1372.528,,Dates with missing data (# 0.5 hr data points):
01/01/09,7:30,329.6,14.1,90.3,1372.526,,4/14 (3).
01/01/09,8:00,329.7,14.1,90.2,1372.527,,
01/01/09,8:30,329.1,14.1,90.8,1372.521,,
01/01/09,9:00,329.4,14.1,90.5,1372.524,,Dates w/missing T data:
01/01/09,9:30,329.4,14.1,90.5,1372.524,,"Feb 2, 9, 27, Mar 14, 16,"
01/01/09,10:00,329.2,14.1,90.7,1372.522,,"Apr 14, Nov 16, Dec 28, 29."
01/01/09,10:30,329.2,14.1,90.7,1372.522,,
01/01/09,11:00,328.5,14.1,91.4,1372.515,,
01/01/09,11:30,329.3,14.1,90.6,1372.523,,
01/01/09,12:00,329.0,14.1,90.9,1372.520,,
01/01/09,12:30,329.4,14.1,90.5,1372.524,,
01/01/09,13:00,329.8,14.1,90.1,1372.528,,
01/01/09,13:30,330.2,14.1,89.7,1372.532,,
01/01/09,14:00,330.5,14.1,89.4,1372.535,,
01/01/09,14:30,330.3,14.1,89.6,1372.533,,
01/01/09,15:00,330.1,14.1,89.8,1372.531,,
01/01/09,15:30,330.1,14.1,89.8,1372.531,,
01/01/09,16:00,329.5,14.1,90.4,1372.525,,
01/01/09,16:30,330.0,14.1,89.9,1372.530,,
01/01/09,17:00,329.5,14.1,90.4,1372.525,,
01/01/09,17:30,329.6,14.1,90.3,1372.526,,
01/01/09,18:00,329.7,14.1,90.2,1372.527,,
01/01/09,18:30,329.9,14.1,90.0,1372.529,,
01/01/09,19:00,329.9,14.1,90.0,1372.529,,
01/01/09,19:30,329.6,14.1,90.3,1372.526,,
01/01/09,20:00,329.5,14.1,90.4,1372.525,,
01/01/09,20:30,329.1,14.1,90.8,1372.521,,
01/01/09,21:00,329.5,14.1,90.4,1372.525,,
01/01/09,21:30,329.8,14.1,90.1,1372.528,,
01/01/09,22:00,329.0,14.1,90.9,1372.520,,
01/01/09,22:30,329.4,14.1,90.5,1372.524,,
01/01/09,23:00,329.2,14.1,90.7,1372.522,,
01/01/09,23:30,329.3,14.1,90.6,1372.523,,
01/02/09,0:00,329.0,14.1,90.9,1372.520,,
01/02/09,0:30,329.4,14.1,90.5,1372.524,,
01/02/09,1:00,329.1,14.1,90.8,1372.521,,
01/02/09,1:30,329.0,14.1,90.9,1372.520,,
01/02/09,2:00,329.9,14.1,90.0,1372.529,,
01/02/09,2:30,329.7,14.1,90.2,1372.527,,
01/02/09,3:00,329.8,14.1,90.1,1372.528,,
01/02/09,3:30,329.8,14.1,90.1,1372.528,,
01/02/09,4:00,329.6,14.1,90.3,1372.526,,
01/02/09,4:30,329.5,14.1,90.4,1372.525,,
01/02/09,5:00,329.4,14.1,90.5,1372.524,,
01/02/09,5:30,329.4,14.1,90.5,1372.524,,
01/02/09,6:00,330.2,14.1,89.7,1372.532,,
01/02/09,6:30,330.4,14.1,89.5,1372.534,,
01/02/09,7:00,329.8,14.1,90.1,1372.528,,
01/02/09,7:30,330.0,14.1,89.9,1372.530,,
01/02/09,8:00,329.8,14.1,90.1,1372.528,,
01/02/09,8:30,329.8,14.1,90.1,1372.528,,
01/02/09,9:00,329.9,14.1,90.0,1372.529,,
01/02/09,9:30,330.2,14.1,89.7,1372.532,,
01/02/09,10:00,329.8,14.1,90.1,1372.528,,
01/02/09,10:30,330.0,14.1,89.9,1372.530,,
01/02/09,11:00,329.2,14.1,90.7,1372.522,,
01/02/09,11:30,329.9,14.1,90.0,1372.529,,
01/02/09,12:00,330.5,14.1,89.4,1372.535,,
01/02/09,12:30,331.1,14.1,88.8,1372.541,,
01/02/09,13:00,331.0,14.1,88.9,1372.540,,
01/02/09,13:30,331.6,14.1,88.3,1372.546,,
01/02/09,14:00,331.9,14.0,88.0,1372.549,,
01/02/09,14:30,332.0,14.0,87.9,1372.550,,
01/02/09,15:00,332.1,14.1,87.8,1372.551,,
01/02/09,15:30,331.9,14.0,88.0,1372.549,,
01/02/09,16:00,332.3,14.1,87.6,1372.553,,
01/02/09,16:30,332.4,14.1,87.5,1372.554,,
01/02/09,17:00,332.2,14.0,87.7,1372.552,,
01/02/09,17:30,331.9,14.0,88.0,1372.549,,
01/02/09,18:00,332.1,14.1,87.8,1372.551,,
01/02/09,18:30,332.1,14.0,87.8,1372.551,,
01/02/09,19:00,331.7,14.0,88.2,1372.547,,
01/02/09,19:30,331.8,14.0,88.1,1372.548,,
01/02/09,20:00,331.1,14.0,88.8,1372.541,,
01/02/09,20:30,331.0,14.0,88.9,1372.540,,
01/02/09,21:00,330.9,14.0,89.0,1372.539,,
01/02/09,21:30,331.1,14.0,88.8,1372.541,,
01/02/09,22:00,331.2,14.0,88.7,1372.542,,
01/02/09,22:30,331.1,14.0,88.8,1372.541,,
01/02/09,23:00,331.2,14.0,88.7,1372.542,,
01/02/09,23:30,331.3,14.1,88.6,1372.543,,
01/03/09,0:00,331.9,14.0,88.0,1372.549,,
01/03/09,0:30,331.3,14.0,88.6,1372.543,,
01/03/09,1:00,331.2,14.0,88.7,1372.542,,
01/03/09,1:30,331.7,14.0,88.2,1372.547,,
01/03/09,2:00,331.3,14.0,88.6,1372.543,,
01/03/09,2:30,331.4,14.0,88.5,1372.544,,
01/03/09,3:00,331.6,14.1,88.3,1372.546,,
01/03/09,3:30,330.9,14.0,89.0,1372.539,,
01/03/09,4:00,331.6,14.0,88.3,1372.546,,
01/03/09,4:30,331.3,14.0,88.6,1372.543,,
01/03/09,5:00,331.4,14.0,88.5,1372.544,,
01/03/09,5:30,331.6,14.0,88.3,1372.546,,
01/03/09,6:00,331.8,14.0,88.1,1372.548,,
01/03/09,6:30,331.9,14.0,88.0,1372.549,,
01/03/09,7:00,331.6,14.0,88.3,1372.546,,
01/03/09,7:30,331.6,14.0,88.3,1372.546,,
01/03/09,8:00,331.7,14.0,88.2,1372.547,,
01/03/09,8:30,331.6,14.0,88.3,1372.546,,
01/03/09,9:00,331.6,14.0,88.3,1372.546,,
01/03/09,9:30,331.4,14.0,88.5,1372.544,,
01/03/09,10:00,331.2,14.0,88.7,1372.542,,
01/03/09,10:30,331.1,14.0,88.8,1372.541,,
01/03/09,11:00,330.5,14.0,89.4,1372.535,,
01/03/09,11:30,330.8,14.0,89.1,1372.538,,
01/03/09,12:00,330.9,14.0,89.0,1372.539,,
01/03/09,12:30,331.1,14.0,88.8,1372.541,,
01/03/09,13:00,331.3,14.0,88.6,1372.543,,
01/03/09,13:30,332.2,14.0,87.7,1372.552,,
01/03/09,14:00,332.1,14.0,87.8,1372.551,,
01/03/09,14:30,332.4,14.0,87.5,1372.554,,
01/03/09,15:00,332.6,14.0,87.3,1372.556,,
01/03/09,15:30,332.7,14.0,87.2,1372.557,,
01/03/09,16:00,332.6,14.0,87.3,1372.556,,
01/03/09,16:30,332.1,14.0,87.8,1372.551,,
01/03/09,17:00,332.5,14.0,87.4,1372.555,,
01/03/09,17:30,332.3,14.0,87.6,1372.553,,
01/03/09,18:00,332.2,14.0,87.7,1372.552,,
01/03/09,18:30,331.8,14.0,88.1,1372.548,,
01/03/09,19:00,332.0,14.0,87.9,1372.550,,
01/03/09,19:30,331.4,14.0,88.5,1372.544,,
01/03/09,20:00,331.1,14.0,88.8,1372.541,,
01/03/09,20:30,331.1,14.0,88.8,1372.541,,
01/03/09,21:00,331.3,14.0,88.6,1372.543,,
01/03/09,21:30,331.4,14.0,88.5,1372.544,,
01/03/09,22:00,331.1,14.0,88.8,1372.541,,
01/03/09,22:30,330.7,14.0,89.2,1372.537,,
01/03/09,23:00,330.2,14.0,89.7,1372.532,,
01/03/09,23:30,330.4,14.0,89.5,1372.534,,
01/04/09,0:00,330.6,14.0,89.3,1372.536,,
01/04/09,0:30,330.3,14.0,89.6,1372.533,,
01/04/09,1:00,330.5,14.0,89.4,1372.535,,
01/04/09,1:30,330.7,14.0,89.2,1372.537,,
01/04/09,2:00,331.2,14.0,88.7,1372.542,,
01/04/09,2:30,331.2,14.0,88.7,1372.542,,
01/04/09,3:00,330.7,14.0,89.2,1372.537,,
01/04/09,3:30,331.2,14.0,88.7,1372.542,,
01/04/09,4:00,331.1,14.0,88.8,1372.541,,
01/04/09,4:30,331.3,14.0,88.6,1372.543,,
01/04/09,5:00,331.3,14.0,88.6,1372.543,,
01/04/09,5:30,331.3,14.0,88.6,1372.543,,
01/04/09,6:00,331.9,14.0,88.0,1372.549,,
01/04/09,6:30,331.8,14.0,88.1,1372.548,,
01/04/09,7:00,331.5,14.0,88.4,1372.545,,
01/04/09,7:30,331.1,14.0,88.8,1372.541,,
01/04/09,8:00,330.5,14.0,89.4,1372.535,,
01/04/09,8:30,330.8,14.0,89.1,1372.538,,
01/04/09,9:00,330.8,14.0,89.1,1372.538,,
01/04/09,9:30,330.5,14.0,89.4,1372.535,,
01/04/09,10:00,330.1,14.0,89.8,1372.531,,
01/04/09,10:30,330.2,14.0,89.7,1372.532,,
01/04/09,11:00,330.1,14.0,89.8,1372.531,,
01/04/09,11:30,330.5,14.0,89.4,1372.535,,
01/04/09,12:00,330.4,14.0,89.5,1372.534,,
01/04/09,12:30,331.0,14.0,88.9,1372.540,,
01/04/09,13:00,331.1,14.0,88.8,1372.541,,
01/04/09,13:30,331.2,14.0,88.7,1372.542,,
01/04/09,14:00,331.1,14.0,88.8,1372.541,,
01/04/09,14:30,331.4,14.0,88.5,1372.544,,
01/04/09,15:00,331.2,14.0,88.7,1372.542,,
01/04/09,15:30,331.9,14.0,88.0,1372.549,,
01/04/09,16:00,332.1,14.0,87.8,1372.551,,
01/04/09,16:30,332.0,14.0,87.9,1372.550,,
01/04/09,17:00,331.5,14.0,88.4,1372.545,,
01/04/09,17:30,331.7,14.0,88.2,1372.547,,
01/04/09,18:00,331.6,14.0,88.3,1372.546,,
01/04/09,18:30,331.5,14.0,88.4,1372.545,,
01/04/09,19:00,331.6,14.0,88.3,1372.546,,
01/04/09,19:30,330.9,14.0,89.0,1372.539,,
01/04/09,20:00,330.8,14.0,89.1,1372.538,,
01/04/09,20:30,330.9,14.0,89.0,1372.539,,
01/04/09,21:00,330.5,14.0,89.4,1372.535,,
01/04/09,21:30,331.1,14.0,88.8,1372.541,,
01/04/09,22:00,330.5,14.0,89.4,1372.535,,
01/04/09,22:30,330.8,14.0,89.1,1372.538,,
01/04/09,23:00,331.1,14.0,88.8,1372.541,,
01/04/09,23:30,330.7,14.0,89.2,1372.537,,
01/05/09,0:00,330.5,14.0,89.4,1372.535,,
01/05/09,0:30,330.4,14.0,89.5,1372.534,,
01/05/09,1:00,330.4,14.0,89.5,1372.534,,
01/05/09,1:30,330.7,14.0,89.2,1372.537,,
01/05/09,2:00,331.0,14.0,88.9,1372.540,,
01/05/09,2:30,331.7,14.0,88.2,1372.547,,
01/05/09,3:00,331.7,14.0,88.2,1372.547,,
01/05/09,3:30,331.6,13.9,88.3,1372.546,,
01/05/09,4:00,332.0,13.9,87.9,1372.550,,
01/05/09,4:30,331.7,14.0,88.2,1372.547,,
01/05/09,5:00,331.5,14.0,88.4,1372.545,,
01/05/09,5:30,331.6,14.0,88.3,1372.546,,
01/05/09,6:00,331.9,14.0,88.0,1372.549,,
01/05/09,6:30,331.5,14.0,88.4,1372.545,,
01/05/09,7:00,331.8,14.0,88.1,1372.548,,
01/05/09,7:30,331.8,14.0,88.1,1372.548,,
01/05/09,8:00,331.6,14.0,88.3,1372.546,,
01/05/09,8:30,331.6,13.9,88.3,1372.546,,
01/05/09,9:00,331.6,14.0,88.3,1372.546,,
01/05/09,9:30,331.8,14.0,88.1,1372.548,,
01/05/09,10:00,332.0,14.0,87.9,1372.550,,
01/05/09,10:30,331.7,14.0,88.2,1372.547,,
01/05/09,11:00,331.2,13.9,88.7,1372.542,,
01/05/09,11:30,331.6,13.9,88.3,1372.546,,
01/05/09,12:00,331.9,14.0,88.0,1372.549,,
01/05/09,12:30,331.9,13.9,88.0,1372.549,,
01/05/09,13:00,332.4,13.9,87.5,1372.554,,
01/05/09,13:30,333.4,13.9,86.5,1372.564,,
01/05/09,14:00,334.0,13.9,85.9,1372.570,,
01/05/09,14:30,333.6,14.0,86.3,1372.566,,
01/05/09,15:00,333.7,13.9,86.2,1372.567,,
01/05/09,15:30,333.5,13.9,86.4,1372.565,,
01/05/09,16:00,333.6,13.9,86.3,1372.566,,
01/05/09,16:30,333.6,14.0,86.3,1372.566,,
01/05/09,17:00,333.1,13.9,86.8,1372.561,,
01/05/09,17:30,333.1,13.9,86.8,1372.561,,
01/05/09,18:00,332.9,13.9,87.0,1372.559,,
01/05/09,18:30,332.9,14.0,87.0,1372.559,,
01/05/09,19:00,332.4,13.9,87.5,1372.554,,
01/05/09,19:30,333.1,14.0,86.8,1372.561,,
01/05/09,20:00,332.2,14.0,87.7,1372.552,,
01/05/09,20:30,332.5,13.9,87.4,1372.555,,
01/05/09,21:00,332.0,14.0,87.9,1372.550,,
01/05/09,21:30,331.6,14.0,88.3,1372.546,,
01/05/09,22:00,332.0,13.9,87.9,1372.550,,
01/05/09,22:30,331.8,13.9,88.1,1372.548,,
01/05/09,23:00,332.0,13.9,87.9,1372.550,,
01/05/09,23:30,332.5,13.9,87.4,1372.555,,
01/06/09,0:00,332.2,13.9,87.7,1372.552,,
01/06/09,0:30,332.0,14.0,87.9,1372.550,,
01/06/09,1:00,332.1,13.9,87.8,1372.551,,
01/06/09,1:30,332.0,13.9,87.9,1372.550,,
01/06/09,2:00,331.8,13.9,88.1,1372.548,,
01/06/09,2:30,332.4,13.9,87.5,1372.554,,
01/06/09,3:00,332.1,14.0,87.8,1372.551,,
01/06/09,3:30,332.1,13.9,87.8,1372.551,,
01/06/09,4:00,331.6,13.9,88.3,1372.546,,
01/06/09,4:30,332.0,13.9,87.9,1372.550,,
01/06/09,5:00,331.4,13.9,88.5,1372.544,,
01/06/09,5:30,331.3,13.9,88.6,1372.543,,
01/06/09,6:00,331.1,13.9,88.8,1372.541,,
01/06/09,6:30,330.7,13.9,89.2,1372.537,,
01/06/09,7:00,330.3,13.9,89.6,1372.533,,
01/06/09,7:30,330.2,13.9,89.7,1372.532,,
01/06/09,8:00,330.0,13.9,89.9,1372.530,,
01/06/09,8:30,329.8,13.9,90.1,1372.528,,
01/06/09,9:00,329.6,13.9,90.3,1372.526,,
01/06/09,9:30,329.1,13.9,90.8,1372.521,,
01/06/09,10:00,329.1,14.0,90.8,1372.521,,
01/06/09,10:30,329.0,14.0,90.9,1372.520,,
01/06/09,11:00,328.8,13.9,91.1,1372.518,,
01/06/09,11:30,329.0,13.9,90.9,1372.520,,
01/06/09,12:00,329.0,13.9,90.9,1372.520,,
01/06/09,12:30,328.9,13.9,91.0,1372.519,,
01/06/09,13:00,329.2,13.9,90.7,1372.522,,
01/06/09,13:30,329.2,13.9,90.7,1372.522,,
01/06/09,14:00,329.4,13.9,90.5,1372.524,,
01/06/09,14:30,329.5,13.9,90.4,1372.525,,
01/06/09,15:00,329.3,13.9,90.6,1372.523,,
01/06/09,15:30,328.8,13.9,91.1,1372.518,,
01/06/09,16:00,329.0,13.9,90.9,1372.520,,
01/06/09,16:30,328.5,13.9,91.4,1372.515,,
01/06/09,17:00,329.2,13.9,90.7,1372.522,,
01/06/09,17:30,328.9,13.9,91.0,1372.519,,
01/06/09,18:00,328.7,13.9,91.2,1372.517,,
01/06/09,18:30,328.3,13.9,91.6,1372.513,,
01/06/09,19:00,328.2,13.9,91.7,1372.512,,
01/06/09,19:30,327.9,13.9,92.0,1372.509,,
01/06/09,20:00,327.8,13.9,92.1,1372.508,,
01/06/09,20:30,326.9,13.9,93.0,1372.499,,
01/06/09,21:00,326.4,13.9,93.5,1372.494,,
01/06/09,21:30,326.3,13.9,93.6,1372.493,,
01/06/09,22:00,326.4,13.9,93.5,1372.494,,
01/06/09,22:30,326.8,13.9,93.1,1372.498,,
01/06/09,23:00,327.0,13.9,92.9,1372.500,,
01/06/09,23:30,327.0,13.9,92.9,1372.500,,
01/07/09,0:00,327.4,13.9,92.5,1372.504,,
01/07/09,0:30,327.5,13.9,92.4,1372.505,,
01/07/09,1:00,327.2,13.9,92.7,1372.502,,
01/07/09,1:30,327.4,13.9,92.5,1372.504,,
01/07/09,2:00,327.4,13.9,92.5,1372.504,,
01/07/09,2:30,327.2,13.9,92.7,1372.502,,
01/07/09,3:00,327.0,13.9,92.9,1372.500,,
01/07/09,3:30,327.4,13.9,92.5,1372.504,,
01/07/09,4:00,326.9,13.9,93.0,1372.499,,
01/07/09,4:30,327.3,13.9,92.6,1372.503,,
01/07/09,5:00,326.4,13.9,93.5,1372.494,,
01/07/09,5:30,326.8,13.9,93.1,1372.498,,
01/07/09,6:00,326.8,13.9,93.1,1372.498,,
01/07/09,6:30,327.1,13.9,92.8,1372.501,,
01/07/09,7:00,326.7,13.9,93.2,1372.497,,
01/07/09,7:30,326.9,13.9,93.0,1372.499,,
01/07/09,8:00,326.5,13.9,93.4,1372.495,,
01/07/09,8:30,326.3,13.9,93.6,1372.493,,
01/07/09,9:00,326.5,13.9,93.4,1372.495,,
01/07/09,9:30,326.4,13.9,93.5,1372.494,,
01/07/09,10:00,326.2,13.9,93.7,1372.492,,
01/07/09,10:30,325.7,13.9,94.2,1372.487,,
01/07/09,11:00,325.5,13.9,94.4,1372.485,,
01/07/09,11:30,325.4,13.9,94.5,1372.484,,
01/07/09,12:00,325.8,13.9,94.1,1372.488,,
01/07/09,12:30,326.8,13.9,93.1,1372.498,,
01/07/09,13:00,326.6,13.9,93.3,1372.496,,
01/07/09,13:30,326.7,13.9,93.2,1372.497,,
01/07/09,14:00,326.3,13.9,93.6,1372.493,,
01/07/09,14:30,326.7,13.9,93.2,1372.497,,
01/07/09,15:00,327.0,13.9,92.9,1372.500,,
01/07/09,15:30,326.8,13.9,93.1,1372.498,,
01/07/09,16:00,326.1,13.9,93.8,1372.491,,
01/07/09,16:30,326.4,13.9,93.5,1372.494,,
01/07/09,17:00,326.5,13.9,93.4,1372.495,,
01/07/09,17:30,326.3,13.9,93.6,1372.493,,
01/07/09,18:00,325.7,13.9,94.2,1372.487,,
01/07/09,18:30,325.8,13.9,94.1,1372.488,,
01/07/09,19:00,325.4,13.9,94.5,1372.484,,
01/07/09,19:30,325.4,13.9,94.5,1372.484,,
01/07/09,20:00,324.9,13.9,95.0,1372.479,,
01/07/09,20:30,324.3,13.9,95.6,1372.473,,
01/07/09,21:00,324.0,13.9,95.9,1372.470,,
01/07/09,21:30,324.4,13.9,95.5,1372.474,,
01/07/09,22:00,324.5,13.9,95.4,1372.475,,
01/07/09,22:30,323.9,13.9,96.0,1372.469,,
01/07/09,23:00,323.9,13.9,96.0,1372.469,,
01/07/09,23:30,324.2,13.9,95.7,1372.472,,
01/08/09,0:00,323.7,13.9,96.2,1372.467,,
01/08/09,0:30,323.1,13.9,96.8,1372.461,,
01/08/09,1:00,323.5,13.9,96.4,1372.465,,
01/08/09,1:30,323.8,13.9,96.1,1372.468,,
01/08/09,2:00,323.9,13.9,96.0,1372.469,,
01/08/09,2:30,323.5,13.9,96.4,1372.465,,
01/08/09,3:00,323.9,13.9,96.0,1372.469,,
01/08/09,3:30,323.7,13.9,96.2,1372.467,,
01/08/09,4:00,323.7,13.9,96.2,1372.467,,
01/08/09,4:30,323.7,13.9,96.2,1372.467,,
01/08/09,5:00,323.9,13.9,96.0,1372.469,,
01/08/09,5:30,324.1,13.9,95.8,1372.471,,
01/08/09,6:00,324.0,13.9,95.9,1372.470,,
01/08/09,6:30,324.1,13.9,95.8,1372.471,,
01/08/09,7:00,323.3,13.9,96.6,1372.463,,
01/08/09,7:30,323.1,13.9,96.8,1372.461,,
01/08/09,8:00,323.7,13.9,96.2,1372.467,,
01/08/09,8:30,323.4,13.9,96.5,1372.464,,
01/08/09,9:00,323.4,13.9,96.5,1372.464,,
01/08/09,9:30,323.8,13.9,96.1,1372.468,,
01/08/09,10:00,323.8,13.9,96.1,1372.468,,
01/08/09,10:30,323.1,13.9,96.8,1372.461,,
01/08/09,11:00,323.2,13.9,96.7,1372.462,,
01/08/09,11:30,323.2,13.8,96.7,1372.462,,
01/08/09,12:00,323.4,13.9,96.5,1372.464,,
01/08/09,12:30,323.6,13.9,96.3,1372.466,,
01/08/09,13:00,323.7,13.9,96.2,1372.467,,
01/08/09,13:30,323.8,13.9,96.1,1372.468,,
01/08/09,14:00,323.9,13.9,96.0,1372.469,,
01/08/09,14:30,323.6,13.9,96.3,1372.466,,
01/08/09,15:00,324.6,13.8,95.3,1372.476,,
01/08/09,15:30,324.1,13.9,95.8,1372.471,,
01/08/09,16:00,324.3,13.9,95.6,1372.473,,
01/08/09,16:30,323.5,13.8,96.4,1372.465,,
01/08/09,17:00,323.9,13.8,96.0,1372.469,,
01/08/09,17:30,323.9,13.8,96.0,1372.469,,
01/08/09,18:00,323.9,13.9,96.0,1372.469,,
01/08/09,18:30,323.9,13.9,96.0,1372.469,,
01/08/09,19:00,323.4,13.8,96.5,1372.464,,
01/08/09,19:30,323.5,13.8,96.4,1372.465,,
01/08/09,20:00,323.0,13.9,96.9,1372.460,,
01/08/09,20:30,323.1,13.8,96.8,1372.461,,
01/08/09,21:00,323.3,13.8,96.6,1372.463,,
01/08/09,21:30,322.8,13.8,97.1,1372.458,,
01/08/09,22:00,322.8,13.8,97.1,1372.458,,
01/08/09,22:30,322.4,13.9,97.5,1372.454,,
01/08/09,23:00,322.6,13.8,97.3,1372.456,,
01/08/09,23:30,323.0,13.8,96.9,1372.460,,
01/09/09,0:00,323.1,13.9,96.8,1372.461,,
01/09/09,0:30,322.7,13.8,97.2,1372.457,,
01/09/09,1:00,322.9,13.8,97.0,1372.459,,
01/09/09,1:30,323.1,13.8,96.8,1372.461,,
01/09/09,2:00,323.2,13.8,96.7,1372.462,,
01/09/09,2:30,323.1,13.8,96.8,1372.461,,
01/09/09,3:00,323.4,13.8,96.5,1372.464,,
01/09/09,3:30,323.3,13.8,96.6,1372.463,,
01/09/09,4:00,323.4,13.8,96.5,1372.464,,
01/09/09,4:30,323.0,13.8,96.9,1372.460,,
01/09/09,5:00,323.1,13.8,96.8,1372.461,,
01/09/09,5:30,323.1,13.8,96.8,1372.461,,
01/09/09,6:00,323.2,13.8,96.7,1372.462,,
01/09/09,6:30,323.3,13.8,96.6,1372.463,,
01/09/09,7:00,323.0,13.8,96.9,1372.460,,
01/09/09,7:30,322.9,13.8,97.0,1372.459,,
01/09/09,8:00,322.3,13.8,97.6,1372.453,,
01/09/09,8:30,322.5,13.8,97.4,1372.455,,
01/09/09,9:00,322.6,13.8,97.3,1372.456,,
01/09/09,9:30,322.3,13.8,97.6,1372.453,,
01/09/09,10:00,322.8,13.8,97.1,1372.458,,
01/09/09,10:30,322.2,13.8,97.7,1372.452,,
01/09/09,11:00,322.1,13.8,97.8,1372.451,,
01/09/09,11:30,322.3,13.8,97.6,1372.453,,
01/09/09,12:00,323.3,13.8,96.6,1372.463,,
01/09/09,12:30,323.6,13.8,96.3,1372.466,,
01/09/09,13:00,323.3,13.8,96.6,1372.463,,
01/09/09,13:30,323.4,13.8,96.5,1372.464,,
01/09/09,14:00,323.6,13.8,96.3,1372.466,,
01/09/09,14:30,323.7,13.8,96.2,1372.467,,
01/09/09,15:00,324.1,13.8,95.8,1372.471,,
01/09/09,15:30,324.8,13.8,95.1,1372.478,,
01/09/09,16:00,324.5,13.8,95.4,1372.475,,
01/09/09,16:30,324.1,13.8,95.8,1372.471,,
01/09/09,17:00,323.9,13.8,96.0,1372.469,,
01/09/09,17:30,323.9,13.8,96.0,1372.469,,
01/09/09,18:00,323.8,13.8,96.1,1372.468,,
01/09/09,18:30,323.1,13.8,96.8,1372.461,,
01/09/09,19:00,322.7,13.8,97.2,1372.457,,
01/09/09,19:30,322.7,13.8,97.2,1372.457,,
01/09/09,20:00,322.4,13.8,97.5,1372.454,,
01/09/09,20:30,322.4,13.8,97.5,1372.454,,
01/09/09,21:00,322.2,13.8,97.7,1372.452,,
01/09/09,21:30,322.0,13.8,97.9,1372.450,,
01/09/09,22:00,322.6,13.8,97.3,1372.456,,
01/09/09,22:30,322.0,13.8,97.9,1372.450,,
01/09/09,23:00,322.0,13.8,97.9,1372.450,,
01/09/09,23:30,322.3,13.8,97.6,1372.453,,
01/10/09,0:00,322.1,13.8,97.8,1372.451,,
01/10/09,0:30,322.5,13.8,97.4,1372.455,,
01/10/09,1:00,323.0,13.8,96.9,1372.460,,
01/10/09,1:30,323.3,13.8,96.6,1372.463,,
01/10/09,2:00,322.8,13.8,97.1,1372.458,,
01/10/09,2:30,323.1,13.8,96.8,1372.461,,
01/10/09,3:00,323.3,13.8,96.6,1372.463,,
01/10/09,3:30,322.9,13.8,97.0,1372.459,,
01/10/09,4:00,323.3,13.8,96.6,1372.463,,
01/10/09,4:30,322.7,13.8,97.2,1372.457,,
01/10/09,5:00,322.9,13.8,97.0,1372.459,,
01/10/09,5:30,323.0,13.8,96.9,1372.460,,
01/10/09,6:00,322.9,13.8,97.0,1372.459,,
01/10/09,6:30,322.8,13.8,97.1,1372.458,,
01/10/09,7:00,323.0,13.8,96.9,1372.460,,
01/10/09,7:30,323.2,13.8,96.7,1372.462,,
01/10/09,8:00,323.6,13.8,96.3,1372.466,,
01/10/09,8:30,323.5,13.8,96.4,1372.465,,
01/10/09,9:00,323.5,13.8,96.4,1372.465,,
01/10/09,9:30,323.2,13.8,96.7,1372.462,,
01/10/09,10:00,323.8,13.8,96.1,1372.468,,
01/10/09,10:30,324.1,13.8,95.8,1372.471,,
01/10/09,11:00,324.3,13.8,95.6,1372.473,,
01/10/09,11:30,324.4,13.8,95.5,1372.474,,
01/10/09,12:00,324.6,13.8,95.3,1372.476,,
01/10/09,12:30,325.6,13.8,94.3,1372.486,,
01/10/09,13:00,325.7,13.8,94.2,1372.487,,
01/10/09,13:30,326.1,13.8,93.8,1372.491,,
01/10/09,14:00,326.1,13.8,93.8,1372.491,,
01/10/09,14:30,326.1,13.8,93.8,1372.491,,
01/10/09,15:00,326.3,13.8,93.6,1372.493,,
01/10/09,15:30,326.4,13.8,93.5,1372.494,,
01/10/09,16:00,326.9,13.8,93.0,1372.499,,
01/10/09,16:30,326.9,13.8,93.0,1372.499,,
01/10/09,17:00,326.8,13.8,93.1,1372.498,,
01/10/09,17:30,326.5,13.8,93.4,1372.495,,
01/10/09,18:00,325.7,13.8,94.2,1372.487,,
01/10/09,18:30,325.5,13.8,94.4,1372.485,,
01/10/09,19:00,325.4,13.8,94.5,1372.484,,
01/10/09,19:30,325.1,13.8,94.8,1372.481,,
01/10/09,20:00,325.5,13.8,94.4,1372.485,,
01/10/09,20:30,325.2,13.8,94.7,1372.482,,
01/10/09,21:00,325.1,13.8,94.8,1372.481,,
01/10/09,21:30,325.2,13.8,94.7,1372.482,,
01/10/09,22:00,325.7,13.8,94.2,1372.487,,
01/10/09,22:30,326.1,13.8,93.8,1372.491,,
01/10/09,23:00,325.8,13.8,94.1,1372.488,,
01/10/09,23:30,326.3,13.8,93.6,1372.493,,
01/11/09,0:00,326.2,13.8,93.7,1372.492,,
01/11/09,0:30,326.3,13.8,93.6,1372.493,,
01/11/09,1:00,326.7,13.8,93.2,1372.497,,
01/11/09,1:30,326.5,13.8,93.4,1372.495,,
01/11/09,2:00,326.7,13.8,93.2,1372.497,,
01/11/09,2:30,327.0,13.8,92.9,1372.500,,
01/11/09,3:00,327.2,13.8,92.7,1372.502,,
01/11/09,3:30,327.0,13.8,92.9,1372.500,,
01/11/09,4:00,326.6,13.8,93.3,1372.496,,
01/11/09,4:30,326.5,13.8,93.4,1372.495,,
01/11/09,5:00,326.5,13.8,93.4,1372.495,,
01/11/09,5:30,326.2,13.8,93.7,1372.492,,
01/11/09,6:00,326.8,13.8,93.1,1372.498,,
01/11/09,6:30,327.0,13.8,92.9,1372.500,,
01/11/09,7:00,327.5,13.8,92.4,1372.505,,
01/11/09,7:30,327.0,13.8,92.9,1372.500,,
01/11/09,8:00,327.2,13.8,92.7,1372.502,,
01/11/09,8:30,327.3,13.8,92.6,1372.503,,
01/11/09,9:00,326.6,13.8,93.3,1372.496,,
01/11/09,9:30,327.0,13.8,92.9,1372.500,,
01/11/09,10:00,327.1,13.8,92.8,1372.501,,
01/11/09,10:30,327.5,13.8,92.4,1372.505,,
01/11/09,11:00,328.2,13.8,91.7,1372.512,,
01/11/09,11:30,328.5,13.8,91.4,1372.515,,
01/11/09,12:00,329.3,13.8,90.6,1372.523,,
01/11/09,12:30,329.1,13.8,90.8,1372.521,,
01/11/09,13:00,329.9,13.8,90.0,1372.529,,
01/11/09,13:30,329.7,13.7,90.2,1372.527,,
01/11/09,14:00,329.6,13.8,90.3,1372.526,,
01/11/09,14:30,329.6,13.8,90.3,1372.526,,
01/11/09,15:00,330.1,13.7,89.8,1372.531,,
01/11/09,15:30,329.9,13.8,90.0,1372.529,,
01/11/09,16:00,329.7,13.8,90.2,1372.527,,
01/11/09,16:30,329.6,13.8,90.3,1372.526,,
01/11/09,17:00,329.5,13.8,90.4,1372.525,,
01/11/09,17:30,328.6,13.8,91.3,1372.516,,
01/11/09,18:00,329.0,13.8,90.9,1372.520,,
01/11/09,18:30,328.8,13.8,91.1,1372.518,,
01/11/09,19:00,328.5,13.8,91.4,1372.515,,
01/11/09,19:30,328.3,13.8,91.6,1372.513,,
01/11/09,20:00,328.4,13.8,91.5,1372.514,,
01/11/09,20:30,328.5,13.8,91.4,1372.515,,
01/11/09,21:00,328.7,13.8,91.2,1372.517,,
01/11/09,21:30,328.4,13.8,91.5,1372.514,,
01/11/09,22:00,327.9,13.8,92.0,1372.509,,
01/11/09,22:30,328.5,13.7,91.4,1372.515,,
01/11/09,23:00,328.9,13.8,91.0,1372.519,,
01/11/09,23:30,328.6,13.7,91.3,1372.516,,
01/12/09,0:00,328.9,13.7,91.0,1372.519,,
01/12/09,0:30,329.0,13.8,90.9,1372.520,,
01/12/09,1:00,328.7,13.7,91.2,1372.517,,
01/12/09,1:30,329.0,13.7,90.9,1372.520,,
01/12/09,2:00,329.0,13.8,90.9,1372.520,,
01/12/09,2:30,328.9,13.7,91.0,1372.519,,
01/12/09,3:00,328.9,13.7,91.0,1372.519,,
01/12/09,3:30,328.7,13.8,91.2,1372.517,,
01/12/09,4:00,329.2,13.8,90.7,1372.522,,
01/12/09,4:30,329.0,13.7,90.9,1372.520,,
01/12/09,5:00,329.1,13.7,90.8,1372.521,,
01/12/09,5:30,329.0,13.7,90.9,1372.520,,
01/12/09,6:00,329.3,13.7,90.6,1372.523,,
01/12/09,6:30,329.2,13.7,90.7,1372.522,,
01/12/09,7:00,329.3,13.7,90.6,1372.523,,
01/12/09,7:30,329.6,13.7,90.3,1372.526,,
01/12/09,8:00,329.4,13.7,90.5,1372.524,,
01/12/09,8:30,329.6,13.7,90.3,1372.526,,
01/12/09,9:00,329.2,13.7,90.7,1372.522,,
01/12/09,9:30,328.7,13.8,91.2,1372.517,,
01/12/09,10:00,329.2,13.7,90.7,1372.522,,
01/12/09,10:30,329.6,13.7,90.3,1372.526,,
01/12/09,11:00,329.3,13.7,90.6,1372.523,,
01/12/09,11:30,330.0,13.7,89.9,1372.530,,